Dewpoint
18 12 21 24 19 21 17 19 19 27 33 33 35 37 38 40 51 52 56 59 61 57 54 55 56 56 59 59 62 65 67 65 62 61 61 61 59 56 50 56 58 61 61 61 60 60 60 59 60 61 62 62 63 65 65 64 63 64 64 66 67 68 69 69 69 69 66 67 69 67 66 68 67 70 70 68 69 70 69 71 74 77 75 78 77 77
15 17 13 19 17 17 20 28 17 24 30 30 29 32 33 41 47 53 55 59 62 56 52 57 57 57 57 59 61 63 65 65 61 62 61 59 56 60 52 53 58 59 59 60 63 60 59 59 60 60 61 64 63 65 65 65 64 66 64 65 65 67 69 69 68 69 67 71 68 66 66 68 66 70 74 73 70 70 69 75 76 77 76 78 78 78
14 14 16 15 14 14 17 25 25 28 27 27 27 30 30 42 45 51 55 60 61 59 49 55 56 56 59 61 61 61 63 65 64 62 61 59 61 60 59 53 60 58 61 59 60 61 58 59 59 60 61 62 63 63 64 65 65 66 66 69 70 68 68 68 69 72 72 72 71 68 66 71 75 68 70 67 70 70 69 71 75 77 77 78 77 76
15 12 7 9 18 22 22 25 24 19 20 23 21 24 22 44 39 48 52 53 59 53 49 52 53 56 59 60 61 61 62 63 66 65 63 63 61 59 59 52 59 58 60 60 62 60 59 59 60 60 61 63 63 64 64 64 65 66 70 70 71 70 69 70 71 73 70 72 73 75 73 71 70 69 70 72 71 71 69 71 74 76 78 76 74 73
16 11 15 16 21 23 21 19 19 15 13 16 19 22 24 34 33 37 47 49 51 53 55 52 52 52 57 57 61 62 63 65 65 65 65 64 61 60 59 60 55 60 60 61 62 63 61 59 59 60 61 62 63 63 63 64 64 64 66 69 71 71 70 70 72 73 74 74 73 74 74 73 74 73 71 70 70 73 72 70 72 71 75 76 74 74
9 9 13 17 18 15 14 11 12 13 14 14 15 17 22 29 26 41 46 45 41 50 54 51 42 44 55 57 59 61 61 63 64 64 63 64 62 61 58 58 55 60 60 60 60 61 59 59 59 61 61 61 62 62 62 63 63 65 66 68 72 71 71 69 71 74 75 75 75 74 73 73 72 74 71 69 69 69 70 69 71 71 72 72 74 75
3 5 8 11 14 14 12 7 7 10 13 13 16 16 18 18 21 29 38 39 35 35 52 53 42 40 54 53 55 59 61 60 63 63 62 63 63 60 58 57 53 54 59 60 60 61 61 59 59 60 60 61 61 61 62 63 63 65 66 69 69 71 72 69 72 74 75 74 75 72 68 68 70 71 70 72 69 70 69 72 71 73 72 74 73 73
1 3 8 9 5 5 5 5 4 5 7 10 11 15 17 17 26 30 34 34 39 40 56 53 49 47 45 51 56 59 60 60 60 62 62 62 62 61 58 56 55 53 57 58 62 63 62 60 59 59 60 60 60 60 60 61 61 66 70 70 71 72 72 71 72 74 75 74 74 73 71 70 69 65 70 71 72 71 76 74 70 72 73 75 78 76
1 -0 2 5 6 3 0 1 4 5 4 4 6 6 6 17 25 29 29 35 37 38 35 48 52 45 45 52 56 59 57 58 58 59 61 61 62 61 57 54 55 53 57 58 59 61 62 60 60 59 60 59 59 60 59 61 61 65 68 71 71 71 72 72 73 74 74 75 74 74 70 73 71 70 69 71 72 74 74 73 76 73 72 74 76 76
15 14 13 11 8 2 0 -2 -2 2 5 6 4 6 6 6 11 28 31 34 36 36 33 36 51 42 40 50 55 59 56 56 57 58 59 60 60 60 58 55 55 53 56 57 59 59 61 61 61 60 58 58 58 59 59 60 61 64 67 70 71 71 71 72 73 74 74 74 75 74 73 71 71 72 73 73 75 75 78 74 75 77 79 69 74 75
10 20 20 12 10 6 8 9 12 6 4 7 8 6 5 10 13 18 25 30 33 33 33 37 40 43 38 49 52 55 56 55 56 58 59 60 60 60 58 54 56 53 54 56 58 60 61 62 61 61 57 57 58 59 59 60 61 64 66 68 70 72 71 72 73 73 73 73 73 73 74 72 72 71 72 73 74 76 75 75 73 74 76 77 72 71
8 10 12 10 7 3 8 9 12 13 12 10 11 6 5 12 14 24 29 36 32 29 44 48 50 49 41 49 51 54 55 55 54 56 58 59 60 59 60 56 55 55 52 55 56 58 61 63 62 61 61 57 58 57 59 60 61 64 66 68 71 72 73 72 71 72 71 71 73 73 73 73 74 74 71 74 74 73 74 72 74 77 77 75 74 77
10 11 14 14 21 10 7 4 1 4 11 13 10 10 9 11 20 22 30 26 27 27 46 49 49 46 44 45 47 51 53 52 54 58 59 59 59 59 59 58 54 55 52 53 57 58 59 61 63 63 62 62 63 61 60 59 62 64 67 68 70 72 73 74 72 72 72 73 72 73 72 73 74 75 75 74 75 74 75 73 73 76 76 77 75 74
10 12 15 13 14 17 13 5 5 5 12 16 14 15 15 16 19 21 22 26 26 28 49 50 49 42 40 42 45 49 52 51 52 58 57 58 60 60 59 59 55 56 54 53 54 56 59 60 62 62 63 62 60 58 58 59 62 65 66 69 69 72 73 74 73 72 73 72 73 73 73 73 74 74 74 74 72 71 74 74 74 72 71 75 72 70
11 11 13 17 17 17 19 16 12 12 16 16 18 17 19 22 18 20 22 22 24 36 42 50 42 37 37 48 45 44 46 50 52 56 58 58 61 62 60 59 57 55 55 53 54 54 57 59 62 61 62 62 60 58 58 59 64 66 68 70 72 72 72 73 73 73 73 71 72 73 72 73 72 72 73 73 73 73 72 69 70 75 72 71 71 71
7 8 17 19 20 21 19 15 18 17 17 19 22 26 23 23 29 20 23 23 24 26 40 40 35 40 43 47 48 50 50 56 56 57 58 58 58 61 62 62 59 56 56 53 54 56 58 60 61 61 62 62 62 64 61 60 65 65 68 71 71 72 71 72 73 73 72 73 71 73 73 72 73 74 72 75 75 75 72 71 71 74 76 74 78 75
12 8 16 19 20 18 16 20 21 23 21 25 25 23 23 29 27 26 27 22 23 27 26 34 33 39 49 48 48 48 54 56 59 56 55 56 58 60 61 61 59 59 59 56 56 57 60 60 60 61 62 62 62 61 61 65 66 68 70 69 70 72 71 71 73 71 72 72 72 72 71 70 71 69 69 68 69 68 71 73 72 70 70 73 75 71
12 12 15 16 15 20 23 24 24 22 27 29 26 26 29 30 31 29 23 30 29 28 31 33 32 38 41 40 50 50 51 55 56 54 53 55 57 58 60 62 63 61 59 62 62 59 59 61 62 62 62 64 63 62 63 68 66 70 69 69 69 70 70 69 70 69 70 71 70 71 71 71 70 68 68 68 68 68 70 71 73 71 71 69 69 70
13 13 11 11 13 21 25 24 19 20 32 30 30 35 28 36 35 42 33 29 29 27 30 31 31 36 41 42 46 48 51 51 54 55 54 53 56 57 60 64 65 64 62 61 61 59 59 60 61 63 63 63 65 66 64 65 65 67 67 67 68 69 68 68 68 68 69 69 68 68 69 68 69 68 68 68 70 70 68 67 68 69 70 68 71 73
14 10 13 17 13 17 17 21 20 24 31 31 32 30 32 31 33 34 33 36 36 30 29 31 31 31 45 48 46 53 52 52 51 53 55 57 57 57 59 60 64 65 65 66 66 60 58 56 58 60 61 64 65 65 63 64 61 62 64 66 67 69 69 68 66 67 68 68 68 68 69 70 72 71 69 69 70 68 67 67 67 67 66 67 69 69
11 22 14 14 14 15 18 18 17 25 28 28 29 30 32 30 30 32 39 34 32 36 34 33 36 41 47 51 52 52 53 55 56 56 57 58 57 57 56 58 63 66 66 67 67 63 57 57 56 59 63 64 63 64 63 64 63 63 64 65 67 67 67 66 66 66 68 68 69 69 69 68 69 67 67 67 67 67 69 68 71 68 67 69 69 69
17 14 12 13 12 13 14 21 21 24 30 29 30 33 32 38 41 31 36 33 32 30 30 32 31 47 53 56 55 52 53 53 55 57 60 58 60 62 62 59 64 66 67 67 65 64 58 59 58 59 62 60 61 63 65 63 64 64 64 64 65 64 66 65 66 69 69 69 69 68 67 69 68 69 69 67 67 68 68 68 70 70 70 66 69 70
19 16 18 14 13 13 15 18 19 22 26 28 30 27 30 30 38 41 32 33 31 30 32 33 30 44 51 55 57 55 57 58 60 59 57 61 62 64 64 62 65 66 65 66 67 67 61 60 61 61 62 61 62 63 63 63 63 65 67 67 67 68 68 66 66 70 71 71 71 70 67 68 69 69 68 66 66 67 66 66 68 68 68 66 67 69
39 19 17 15 16 17 19 17 22 27 27 26 25 34 31 29 34 37 40 39 35 33 32 33 32 47 51 57 57 53 60 59 59 59 62 62 64 65 65 65 64 66 66 67 67 68 67 62 63 63 63 64 64 65 64 65 66 67 68 70 69 70 70 70 70 72 72 70 69 67 68 68 68 66 66 65 65 65 65 65 66 68 67 66 65 67
20 29 25 21 23 21 15 19 17 20 24 29 31 36 34 34 33 33 37 42 38 35 34 33 34 46 48 56 56 57 58 58 59 60 61 62 64 65 66 66 65 66 66 67 66 66 67 64 64 66 65 66 66 65 64 65 67 70 69 70 68 70 71 69 70 71 72 70 67 67 67 66 66 66 67 67 64 63 63 64 65 67 67 66 66 66
21 21 28 21 22 22 22 22 22 28 31 30 31 33 35 32 35 35 34 42 36 41 41 38 39 46 50 54 52 57 58 58 60 60 61 64 62 64 64 65 65 66 67 67 68 68 68 68 66 67 67 67 68 67 67 67 67 69 72 70 70 70 72 71 70 71 72 71 69 70 67 66 66 66 66 67 66 63 62 64 64 66 67 66 66 67
20 20 25 28 25 22 26 29 23 26 23 22 28 30 31 32 32 38 45 43 42 41 38 43 48 48 50 52 52 55 57 57 61 59 61 61 62 63 64 66 66 66 67 67 68 69 69 68 67 67 68 67 68 68 69 68 69 70 72 72 72 72 72 72 71 73 73 72 70 70 68 66 66 66 66 70 70 69 66 65 65 65 65 66 67 66
24 18 17 26 20 19 18 22 19 21 18 24 24 24 25 26 32 41 39 38 44 41 38 47 47 43 43 46 53 53 55 59 59 61 61 61 61 62 63 64 65 65 65 69 67 67 68 69 68 68 69 68 69 70 69 69 70 71 72 71 71 72 71 68 69 74 73 72 72 73 72 70 69 71 72 73 74 74 72 68 65 66 65 68 68 65
20 20 20 17 15 15 15 14 10 12 15 19 26 27 27 27 30 34 35 35 39 37 33 40 45 47 46 46 53 54 58 58 58 60 61 62 63 62 63 64 63 64 66 67 68 69 69 69 69 67 68 68 69 70 69 68 71 73 73 73 72 72 73 72 72 73 72 74 74 74 75 75 75 76 76 77 77 75 76 74 70 69 71 72 67 64
29 21 19 14 16 16 15 14 14 10 17 23 27 27 24 23 28 30 32 34 36 40 40 39 45 43 43 47 53 57 59 59 60 62 61 61 62 63 62 63 63 64 65 65 66 67 69 68 68 69 68 70 66 70 69 70 70 73 74 75 78 77 75 74 74 74 74 75 75 76 76 77 77 76 76 76 79 79 79 75 74 70 71 70 69 72
25 25 26 18 19 15 13 14 15 14 10 12 16 22 22 22 22 27 30 31 33 34 36 39 42 45 53 58 56 59 60 60 58 58 62 61 63 63 63 63 64 64 65 66 68 68 68 68 69 68 67 68 68 71 72 73 73 74 75 76 75 76 74 75 76 75 75 75 76 77 77 76 76 76 78 78 78 78 79 78 76 75 75 75 71 75
24 23 19 23 21 17 13 10 10 12 13 15 16 14 16 22 25 27 30 32 33 35 34 38 39 40 54 59 58 59 60 60 57 57 58 61 61 63 63 63 64 64 65 66 67 68 68 67 66 66 68 67 68 69 70 71 73 74 75 75 75 74 74 73 75 76 77 77 77 77 77 77 77 77 78 77 77 77 77 77 77 77 77 75 71 76
26 25 26 20 16 19 17 13 12 15 18 20 21 26 30 26 21 22 27 32 33 36 38 38 38 52 56 56 57 57 57 57 59 60 61 62 63 63 63 64 65 65 66 67 66 67 67 67 66 66 68 69 70 70 71 71 70 71 72 73 74 77 74 72 75 73 75 77 77 77 78 77 77 77 78 77 77 77 77 77 77 76 76 75 74 74
27 23 22 25 22 22 20 17 19 24 20 22 34 32 31 27 29 28 30 32 46 43 38 40 41 48 54 56 56 56 57 58 60 61 62 62 62 61 62 63 65 65 66 66 67 66 66 67 68 69 69 69 70 72 72 71 71 71 72 72 72 74 73 72 72 72 73 75 75 76 76 75 74 75 76 77 78 77 77 77 76 76 75 75 76 75
23 24 23 31 23 23 23 23 22 16 19 34 30 34 32 28 29 31 32 31 32 38 41 40 45 45 57 57 58 59 59 61 62 62 62 62 63 62 63 64 64 63 64 65 66 66 66 67 68 68 68 70 70 72 71 71 71 71 71 72 72 73 72 72 74 73 73 73 74 75 74 74 74 73 75 75 76 76 75 77 77 77 77 76 76 76
20 21 22 26 25 25 23 19 17 18 34 27 24 28 30 28 26 27 29 28 32 35 44 40 42 53 57 58 59 60 60 61 61 63 62 63 63 63 63 63 63 64 64 64 65 66 66 66 66 68 69 71 72 72 72 72 71 71 72 71 71 72 72 74 74 73 73 71 71 73 71 71 73 74 73 73 73 72 73 75 77 76 77 77 76 75
20 26 24 21 26 22 23 22 20 31 23 23 28 29 24 32 32 32 30 32 41 45 51 51 51 55 58 59 59 60 59 60 59 60 62 62 62 62 63 63 63 63 64 65 65 66 67 67 68 68 69 70 71 72 72 73 72 71 72 72 72 72 73 73 72 72 72 72 72 72 71 70 71 72 72 71 70 70 72 74 75 76 75 75 75 73
44 29 30 27 25 23 23 20 23 22 21 26 32 29 30 30 31 32 34 32 48 46 50 50 52 56 56 58 57 58 58 58 57 58 62 61 62 61 62 63 64 64 64 64 66 66 66 67 68 69 68 68 69 70 71 71 71 70 70 70 70 70 70 70 70 71 72 71 70 70 70 70 70 70 70 70 71 72 73 74 74 74 74 74 73 71
23 32 36 26 24 24 25 22 21 24 26 36 32 32 33 33 34 36 33 27 51 49 50 50 51 56 56 57 56 57 57 54 54 59 61 62 62 62 62 63 63 64 65 65 65 65 66 66 68 68 67 67 67 68 70 70 69 68 68 68 67 67 67 68 68 69 70 71 70 69 68 70 70 70 70 70 72 72 72 72 72 74 74 72 71 71
29 26 27 26 27 24 23 23 23 28 25 36 35 31 31 33 36 37 29 30 43 47 49 51 54 56 57 58 56 56 56 54 54 59 62 62 62 62 62 62 63 64 64 64 65 66 66 67 67 66 66 66 66 67 67 67 67 66 66 66 65 65 65 66 67 68 69 71 70 69 70 70 69 70 70 70 71 71 72 72 73 72 72 71 71 70
29 30 29 25 22 24 28 20 18 20 35 37 35 37 34 38 36 27 25 42 49 49 49 49 52 57 58 58 59 57 58 60 61 62 60 62 62 62 63 63 63 63 63 63 64 65 65 65 65 65 65 65 66 66 67 66 65 65 65 65 64 64 66 68 68 70 70 71 70 70 70 70 70 68 68 68 68 68 68 69 69 69 69 69 68 68
29 32 33 30 24 24 22 20 20 23 43 41 37 38 43 39 30 32 43 50 53 50 50 51 53 57 58 59 59 60 61 61 61 60 60 61 60 60 61 62 63 63 63 64 64 64 64 64 65 64 65 66 65 65 65 65 64 64 64 64 64 66 67 68 68 68 68 68 68 68 68 68 68 68 67 68 67 66 66 67 67 67 67 67 67 67
30 28 27 27 28 25 26 23 20 22 40 37 41 38 44 36 47 45 47 50 49 44 47 55 57 56 59 57 58 60 60 61 61 61 62 61 61 61 61 62 62 62 63 63 64 63 63 64 64 64 65 65 65 65 64 64 63 63 64 64 65 66 67 67 67 67 67 67 67 67 67 67 67 67 67 67 67 67 66 67 66 66 67 66 65 64
35 28 28 28 31 26 26 23 25 40 42 44 40 36 48 49 50 47 46 42 46 47 50 55 60 60 59 59 59 60 60 60 61 61 62 61 62 63 63 62 62 63 63 63 63 63 64 63 61 61 61 62 63 63 63 63 62 62 62 62 64 65 67 67 67 66 66 66 66 67 67 68 68 67 67 67 67 67 66 66 66 66 65 65 64 64
37 33 42 36 37 33 30 34 41 43 45 42 43 43 43 46 48 45 45 43 43 48 54 59 58 58 60 59 60 60 59 59 60 60 61 61 61 61 61 61 62 62 62 61 63 64 63 61 60 59 59 59 62 61 62 62 61 61 61 63 63 63 63 64 64 64 64 65 65 65 65 66 67 67 67 67 66 66 66 66 66 66 66 66 66 66
44 41 44 39 34 37 35 35 37 38 37 38 38 44 45 48 44 42 43 45 46 50 56 57 59 60 60 61 59 59 58 59 60 60 60 61 62 60 59 59 59 59 58 59 60 60 62 62 58 58 59 59 60 61 61 61 61 61 61 62 62 61 61 60 59 59 59 60 62 61 60 60 61 62 64 64 65 67 68 68 68 67 67 67 67 66
36 34 34 32 38 30 29 37 36 38 39 43 43 42 46 47 48 47 50 49 48 50 58 58 59 60 60 60 60 58 58 58 59 59 61 60 59 57 56 57 58 59 59 59 58 58 57 57 58 59 60 58 57 56 57 59 60 60 60 60 59 60 60 59 58 58 57 57 57 59 60 59 58 58 60 63 65 65 66 66 66 65 67 68 65 64
32 35 33 33 33 32 33 38 39 42 46 47 43 43 43 48 55 56 56 53 53 57 60 60 60 61 60 60 60 56 56 58 58 59 59 59 58 57 56 55 56 57 57 56 58 56 54 56 56 56 56 56 54 55 55 55 55 56 56 56 57 59 60 58 56 53 52 51 52 52 52 52 56 54 51 51 51 51 52 51 50 48 50 49 47 53
43 41 32 34 33 33 34 35 39 44 43 48 55 53 51 51 52 52 53 53 53 58 61 61 60 60 60 59 59 57 56 57 58 58 58 56 56 57 56 55 56 57 58 61 62 61 60 59 57 55 57 57 57 59 60 60 59 58 59 58 58 58 57 57 58 53 46 46 46 49 53 48 50 49 49 48 48 50 52 53 52 50 49 51 50 50
34 33 35 34 33 30 31 47 46 38 46 48 51 51 53 52 52 51 52 54 55 60 61 61 60 60 60 58 57 56 56 56 57 58 57 57 57 59 59 58 57 57 60 61 62 61 60 60 61 59 58 59 59 59 59 59 57 55 51 53 55 59 61 61 56 54 51 51 49 49 51 52 50 53 52 49 50 51 52 52 47 52 52 50 51 47
36 41 35 34 38 42 40 47 52 47 45 52 53 51 52 51 50 50 54 58 59 60 61 61 60 59 59 59 58 55 56 56 56 56 57 57 58 59 60 60 59 58 60 60 60 61 60 60 61 60 60 59 60 58 58 58 56 57 55 58 58 58 60 59 57 54 52 55 56 57 58 56 56 57 58 57 56 54 52 51 54 43 46 51 49 44